Location: Palomar Mountain Lodge
(33.3110°N, 116.8495°W)
Time: 03:33:27
(UTC-07:00)

Cosmos 972 Rocket - Pass Details

Date: 14 June 2018
Orbit: 713 x 1151 km, 75.8° (Epoch: 16 August)

Event Time Altitude Azimuth Distance (km) Brightness Sun altitude
Rises 21:23:34 0° 195° (SSW) 3,213 7.0 -15.4°
Reaches altitude 10° 21:25:58 10° 196° (SSW) 2,250 6.2 -15.7°
Maximum altitude 21:30:59 83° 285° (WNW) 727 3.9 -16.5°
Drops below altitude 10° 21:35:52 10° 13° (NNE) 2,192 6.8 -17.2°
Sets 21:38:11 0° 14° (NNE) 3,125 7.6 -17.6°
